TimeEDT,TemperatureF,Dew PointF,Humidity,Sea Level PressureIn,VisibilityMPH,Wind Direction,Wind SpeedMPH,Gust SpeedMPH,PrecipitationIn,Events,Conditions,WindDirDegrees,DateUTC
1:00 AM,12.2,-9999,N/A,29.75,9.0,NNE,5.8,-,N/A,,Clear,30,2012-10-08 05:00:00
2:00 AM,13,,,29.75,9,NE,5.8,,,,,40,2012-10-08 06:00:00
2:00 AM,12.2,-9999,N/A,29.75,9.0,NE,4.6,-,N/A,,Clear,40,2012-10-08 06:00:00
2:56 AM,14.0,-9999,N/A,29.58,9.0,NNE,8.1,-,N/A,,Clear,20,2012-10-08 06:56:00
3:00 AM,14.0,-9999,N/A,29.74,9.0,North,8.1,-,N/A,,Clear,10,2012-10-08 07:00:00
3:38 AM,14.0,-9999,N/A,29.58,9.0,North,6.9,-,N/A,,Scattered Clouds,360,2012-10-08 07:38:00
4:00 AM,12.2,-9999,N/A,29.74,9.0,North,8.1,-,N/A,,Mostly Cloudy,10,2012-10-08 08:00:00
5:00 AM,14,,,29.74,9,North,3.5,,,,Overcast,350,2012-10-08 09:00:00
5:00 AM,14.0,-9999,N/A,29.74,9.0,NNW,3.5,-,N/A,,Overcast,340,2012-10-08 09:00:00
6:00 AM,14.0,-9999,N/A,29.74,9.0,North,4.6,-,N/A,,Overcast,360,2012-10-08 10:00:00
7:00 AM,12.2,-9999,N/A,29.75,9.0,North,5.8,-,N/A,,Scattered Clouds,350,2012-10-08 11:00:00
8:00 AM,12,,,29.75,9,NE,3.5,,,,,50,2012-10-08 12:00:00
8:00 AM,12.2,-9999,N/A,29.75,9.0,NE,3.5,-,N/A,,Scattered Clouds,40,2012-10-08 12:00:00
8:52 AM,14.0,-9999,N/A,29.60,9.0,SSE,2.3,-,N/A,,Scattered Clouds,150,2012-10-08 12:52:00
9:00 AM,14.0,-9999,N/A,29.76,9.0,SE,4.6,-,N/A,,Partly Cloudy,130,2012-10-08 13:00:00
9:33 AM,14.0,-9999,N/A,29.61,9.0,SE,3.5,-,N/A,,Partly Cloudy,140,2012-10-08 13:33:00
10:00 AM,14.0,-9999,N/A,29.77,9.0,SE,5.8,-,N/A,,Clear,140,2012-10-08 14:00:00
11:00 AM,18,,,29.79,9,South,3.5,,,,,170,2012-10-08 15:00:00
11:00 AM,17.6,-9999,N/A,29.79,9.0,South,3.5,-,N/A,,Mostly Cloudy,170,2012-10-08 15:00:00
12:00 PM,15.8,-9999,N/A,29.80,9.0,SSW,4.6,-,N/A,,Overcast,200,2012-10-08 16:00:00
1:00 PM,14.0,-9999,N/A,29.81,9.0,SSW,4.6,-,N/A,,Overcast,200,2012-10-08 17:00:00
2:00 PM,15,,,29.82,9,South,2.3,,,,Overcast,170,2012-10-08 18:00:00
2:00 PM,15.8,-9999,N/A,29.82,9.0,Calm,Calm,-,N/A,,Overcast,0,2012-10-08 18:00:00
3:00 PM,14.0,-9999,N/A,29.84,9.0,NNE,2.3,-,N/A,,Overcast,30,2012-10-08 19:00:00
4:00 PM,14.0,-9999,N/A,29.86,9.0,NNE,3.5,-,N/A,,Overcast,30,2012-10-08 20:00:00
5:00 PM,14,,,29.87,9,ENE,5.8,,,,Overcast,60,2012-10-08 21:00:00
5:00 PM,14.0,-9999,N/A,29.87,9.0,ENE,5.8,-,N/A,,Overcast,60,2012-10-08 21:00:00
6:00 PM,14.0,-9999,N/A,29.89,9.0,East,4.6,-,N/A,,Mostly Cloudy,100,2012-10-08 22:00:00
7:00 PM,14.0,-9999,N/A,29.90,9.0,ESE,8.1,-,N/A,,Scattered Clouds,110,2012-10-08 23:00:00
8:00 PM,14,,,29.92,9,ESE,4.6,,,,,120,2012-10-09 00:00:00
8:00 PM,14.0,-9999,N/A,29.92,9.0,SE,3.5,-,N/A,,Clear,130,2012-10-09 00:00:00
9:00 PM,14.0,-9999,N/A,29.93,9.0,East,3.5,-,N/A,,Clear,90,2012-10-09 01:00:00
10:00 PM,15.8,-9999,N/A,29.93,9.0,ENE,3.5,-,N/A,,Clear,70,2012-10-09 02:00:00
11:00 PM,15,,,29.93,9,ENE,4.6,,,,,70,2012-10-09 03:00:00
11:00 PM,15.8,-9999,N/A,29.93,9.0,ENE,4.6,-,N/A,,Clear,60,2012-10-09 03:00:00
11:16 PM,15.8,-9999,N/A,29.77,9.0,ENE,2.3,-,N/A,,Clear,70,2012-10-09 03:16:00